Cosmos 1378 Rocket - Orbit

View from above orbital plane
View from above orbital plane
View from above satellite
View from above satellite

Ground track
Ground track

The orbit data is extracted from the following two-line orbital elements,

1 13272U 82059B   13140.82607798  .00000444  00000-0  50853-4 0  4515
2 13272 082.5113 096.8766 0018396 354.9221 005.1804 14.83640872671120
Epoch (UTC): 20 May 2013 19:49:33
Eccentricity: 0.0018396
inclination: 82.5113°
perigee height: 605 km
apogee height: 631 km
right ascension of ascending node: 96.8766°
argument of perigee: 354.9221°
revolutions per day: 14.83640872
mean anomaly at epoch: 5.1804°
orbit number at epoch: 67112

The dashed part of the orbit path shows where the satellite is in the earth's shadow,  

Developed and maintained by Chris Peat, Heavens-Above GmbH. Please read the updated FAQ before sending e-mail. Imprint. DLR